Simultaneous Nadir Overpasses (SNOs) Predictions

Prediction of SNOs between AQUA and GOES-15 Satellite Orbit:

Table of predicted SNOs for the next 14.0 days since TLE Epoch: 2/14/2015
Index Date Time (AQUA) AQUA Lat,Lon GOES-15 Lat,Lon Distance(km) Time Diff (sec)
1 02/14/2015 22:29:47 0.48,-133.48 0.06,-135.32 210.27 80
2 02/15/2015 10:51:02 0.64,-138.63 -0.05,-135.34 373.96 80
3 02/17/2015 10:38:49 0.04,-135.65 -0.05,-135.36 34.54 80
4 02/19/2015 10:26:37 -0.64,-132.70 -0.05,-135.37 304.66 80
5 02/19/2015 22:48:00 -0.51,-137.88 0.04,-135.36 286.20 80
6 02/21/2015 22:35:47 0.13,-134.91 0.04,-135.37 52.58 80
7 02/23/2015 22:23:34 0.80,-131.95 0.04,-135.38 391.02 80
8 02/24/2015 10:44:49 0.30,-137.10 -0.04,-135.40 192.95 80
9 02/26/2015 10:32:35 -0.32,-134.13 -0.04,-135.40 144.97 80
10 02/26/2015 22:53:58 -0.80,-139.31 0.03,-135.38 446.95 80




NCC Satellite Simultaneous Nadir Overpasses (SNOs) Prediction Service
